Flag for U.S.A. Weather past 2 weeks in Springfield, Illinois, U.S.A.

Now
83 °F

Sunny.


Feels Like: 85 °F
Forecast: 63 / 84 °F
Wind: 3 mph from North

Location: Capital Airport

Current Time: Jul 5, 2015 at 1:12:31 PM

Latest Report: Jul 5, 2015 at 12:52 PM


Visibility: 10 mi

Pressure: 30.06 "Hg

Humidity: 55%

Dew point: 65 °F

Location of SpringfieldLocation

Historic Weather in Springfield — Graph

°F

Springfield temperature yesterday

Maximum temperature yesterday: 83 °F (at 3:52 PM)
Minimum temperature yesterday: 61 °F (at 6:01 AM)
Average temperature yesterday: 73 °F

Past Weeks' High & Low Weather Summary

 TemperatureHumidityPressure
High88 °F (Jun 22, 2:52 PM)94% (Jun 29, 1:52 AM)30.23 "Hg (Jun 29, 1:52 AM)
Low61 °F (Jun 28, 3:52 AM)48% (Jun 23, 4:52 PM)29.72 "Hg (Jun 29, 1:52 AM)
Average73 °F78%29.93 "Hg
* Reported Jun 20 11:52 AM — Jul 5 11:52 AM, Springfield, Weather by CustomWeather, © 2015

Note: Actual official high and low records may vary slightly from our data, if they occured in-between our weather recording intervals... More about our weather records

Advertising

Springfield weather history for previous 24 hours

 ConditionsComfort  
Time TempWeatherWind HumidityBarometerVisibility
11:52 AM
Sun, Jul 5
81 °FSunny.No wind58%30.06 "Hg10 mi
10:52 AM80 °FSunny.5 mph60%30.06 "Hg10 mi
9:52 AM78 °FSunny.5 mph62%30.07 "Hg10 mi
8:52 AM75 °FSunny.5 mph74%30.06 "Hg10 mi
7:52 AM71 °FSunny.3 mph78%30.06 "Hg7 mi
6:52 AM67 °FSunny.3 mph85%30.06 "Hg6 mi
5:52 AM63 °FClear.No wind90%30.05 "Hg6 mi
4:52 AM64 °FFog.No wind90%30.04 "Hg5 mi
3:52 AM65 °FFog.No wind87%30.04 "Hg4 mi
2:52 AM64 °FFog.No wind90%30.04 "Hg2 mi
1:52 AM65 °FFog.No wind87%30.04 "Hg4 mi
12:52 AM69 °FClear.3 mph81%30.03 "Hg5 mi
11:52 PM
Sat, Jul 4
70 °FClear.3 mph79%30.02 "Hg5 mi
10:52 PM71 °FClear.No wind76%30.01 "Hg6 mi
9:52 PM73 °FClear.5 mph74%30.01 "Hg9 mi
8:52 PM75 °FPartly sunny.5 mph71%29.99 "Hg10 mi
7:52 PM78 °FSunny.3 mph69%29.98 "Hg10 mi
6:52 PM81 °FSunny.3 mph56%29.97 "Hg10 mi
5:52 PM83 °FSunny.No wind53%29.97 "Hg10 mi
4:52 PM83 °FSunny.No wind53%29.98 "Hg10 mi
3:52 PM83 °FSunny.No wind48%29.98 "Hg10 mi
2:52 PM82 °FPassing clouds.No wind51%30.00 "Hg10 mi
1:52 PM81 °FScattered clouds.3 mph53%30.01 "Hg10 mi
Weather by CustomWeather, © 2015

See weather overviewHow to use our weather pages